OBJECT C, 44312

Orbit data source: Space-Track

You're viewing an Uncataloged Satellite

Recently launched and/or uncataloged satellites may have evolving metadata. Metadata may include but not limited to: Owner, Maufacturer, Bus, Motor, and Mission.

OBJECT C, 44312 is a satellite owned by CAST (CN) in LEO that was launched on Wed, 05 Jun 2019 UTC via a CHANG ZHENG 11 launch vehicle from the Yellow Sea Launch Area, China (YSLA). Unknown objects in Earth's orbit typically refer to objects detected orbiting the Earth but have not yet been identified or cataloged. These objects could be anything from previously untracked satellites, spent rocket stages, debris from satellite collisions, or even natural meteoroids temporarily captured by Earth's gravity.

Loading next visibility...
Identifier
44312, 2019-032C
Orbit
LEO
Last TLE update
8 hours ago
Origin
Manufacturer
CAST?
Mission
Operational Commercial Weather
Bus & Motor
BF, Unknown motor
Mass
~10 kg wet, ~10 kg dry
Launch date (UTC)
2019-06-05 (6 years ago)
Launch vehicle
CHANG ZHENG 11
Launch site
Yellow Sea Launch Area, China (YSLA)
Object type
Unknown
Shape & HBR
Box, 0.3 m
Radar Cross Section
0.105 m², Medium (>0.1 m² and < 1m²)

Expand to show TLE details & history

TLE from 8 hours ago
0 OBJECT C
1 44312U 19032C   25184.20435686  .00006426  00000-0  27823-3 0  9996
2 44312  44.9821 103.5913 0010668 110.9671 249.2353 15.23181992334540
Epoch: 2025-07-03T04:54Z
TLE epoch observation values (Epoch: 2025-07-03T04:54:16.432Z)
Latitude
0.00001°
Longitude
108.54838°
Altitude
498.853 km
Speed
7.615 km/s
True Right ascension
06h 54m 21s
True Declination
0° 00' 00"
Sunlit
Object was in daylight at epoch
Visualization orbit readout
Latitude
37.51603°
Longitude
-123.16934°
Altitude
491.148 km
Speed
7.629 km/s
Apparent Right ascension
14h 20m 09s
Apparent Declination
0° 31' 49"
Sunlit
Object is in daylight
Visualization observer readout
Local Sidereal Time
01:04:54
Azimuth
332.311° NNW
Elevation
-46.058°
Doppler factor
1
Orbital elements
Apogee altitude
505.194 km
Perigee altitude
490.524 km
Semi-major axis
6,875.996 km
Eccentricity
0.00107
Inclination
44.9821°
RAAN
103.5913°
Arg. of periapsis
110.9671°
True anomaly
Unknown
Mean anomaly
249.2353°
Eccentric anomaly
Unknown
Mean motion
3.80662 °/min
Orbital period
94.57 mins
BSTAR
0.00027823
Loading maneuver chart data...
Loading SW <> Apogee altitude chart data...
Loading historical data...
Loading historical data...
Loading historical data...
Loading historical data...
Loading historical data...
Loading historical data...
Loading historical data...

OBJECT C Visibility forecast

Observer location: undefined°, undefined°

Span
Click to sort rows by Start time (UTC) header in descending order
Start Az.
Max El. time (UTC)
Max El. Az.
Max El.
End time (UTC)
End Az.
4 mins2025-07-03 20:49:06.565Z175.063° S2025-07-03 20:51:06.565Z140.676° SSE15.921°2025-07-03 20:53:06.565Z105.519° ESE
6 mins2025-07-03 22:27:06.565Z241.393° WSW2025-07-03 22:30:06.565Z92.114° ESE43.932°2025-07-03 22:33:06.565Z67.802° E
5 mins2025-07-04 00:07:06.565Z294.578° NW2025-07-04 00:09:06.565Z351.384° N32.6°2025-07-04 00:12:06.565Z60.049° ENE
6 mins2025-07-04 01:46:06.565Z304.049° NW2025-07-04 01:49:06.565Z33.087° NE33.963°2025-07-04 01:52:06.565Z84.622° E
5 mins2025-07-04 03:26:06.565Z277.989° WNW2025-07-04 03:28:06.565Z187.973° SSW40.045°2025-07-04 03:31:06.565Z130.728° SE
|